[[{"header":{"parameterUnit":"m.s-1","parameterCategory":1,"la1":30.2991,"la2":30.254,"lo1":-89.0895,"lo2":-89.0444,"dy":0.0017,"dx":0.0017,"nx":28,"ny":28,"refTime":"2024-05-30T03:00:00:Z","depth":0,"parameterNumber":2,"parameterNumberName":"U-component_of_WINDS"},"data":[0,0,0,0,0,0,0,0,0,0,0,0,0,0,0,0,0,0,0,0,0,0,0,0,0,0,0,0,0,0,0,0,0,0,0,0,0,0,0,0,0,0,0,0,0,0,0,0,0,0,0,0,0,0,0,0,0,0,-3.3484,-3.3484,0,-3.3457,-3.3456,-3.3456,-3.3382,-3.338,-3.3378,-3.3377,-3.3349,-3.3349,-3.335,0,0,0,0,0,0,0,0,0,0,0,0,0,-3.3475,-3.3475,-3.3484,-3.3484,-3.3484,-3.3457,-3.3456,-3.3456,-3.3382,-3.338,-3.3378,-3.3376,-3.3348,-3.3349,-3.335,0,0,0,0,0,0,0,0,0,0,0,0,0,-3.3466,-3.3476,-3.3484,-3.3443,-3.3439,-3.3457,-3.3456,-3.3456,-3.3382,-3.338,-3.3378,-3.3375,-3.3348,-3.3349,-3.335,-3.3405,0,0,-3.3354,-3.3354,0,0,0,0,0,0,0,0,-3.3467,-3.3467,-3.345,-3.3446,-3.3442,-3.342,-3.3443,-3.3439,-3.3383,-3.3404,-3.3377,-3.3374,-3.3374,-3.3373,-3.3373,-3.3404,-3.3403,-3.3354,-3.3354,-3.3355,-3.3355,0,0,0,0,0,0,0,-3.3468,-3.3468,-3.3473,-3.345,-3.3445,-3.3427,-3.3423,-3.3442,-3.3403,-3.3402,-3.3397,-3.3394,-3.3372,-3.3372,-3.3372,-3.3402,-3.3354,-3.3355,-3.3355,-3.3356,-3.3477,-3.3479,0,0,0,0,0,0,-3.3474,-3.3468,-3.3474,-3.3472,-3.3449,-3.3429,-3.3425,-3.343,-3.3403,-3.3396,-3.3396,-3.3391,-3.3372,-3.3371,-3.3371,-3.3432,-3.3355,-3.3356,-3.3357,-3.3474,-3.3477,-3.348,0,0,0,0,0,0,-3.3474,-3.3475,-3.3475,-3.3469,-3.3468,-3.3432,-3.3438,-3.343,-3.3431,-3.3398,-3.3391,-3.3404,-3.337,-3.3369,-3.3397,-3.343,-3.3356,-3.3357,-3.3471,-3.3475,-3.3479,-3.3556,0,0,0,0,0,0,-3.3474,-3.3476,-3.3495,-3.347,-3.3468,-3.3502,-3.344,-3.3431,-3.3433,-3.3425,-3.3403,-3.3397,-3.3368,-3.3396,-3.3398,-3.343,-3.3358,-3.3468,-3.3473,-3.3478,-3.355,-3.3562,-3.3572,0,0,0,0,0,-3.3474,-3.3518,-3.3497,-3.3498,-3.3492,-3.3504,-3.3503,-3.3468,-3.3436,-3.3455,-3.3435,-3.3398,-3.3427,-3.3399,-3.3401,-3.3434,-3.3466,-3.3472,-3.3477,-3.3545,-3.356,-3.3572,0,0,0,0,0,0,-3.3547,-3.3514,-3.349,-3.3527,-3.3519,-3.3491,-3.3514,-3.3484,-3.3484,-3.3477,-3.3435,-3.343,-3.3464,-3.3453,-3.3422,-3.3486,-3.3441,-3.3447,-3.3492,-3.3505,-3.3516,-3.3516,-3.3359,0,0,0,0,0,-3.3568,-3.358,-3.355,-3.3586,-3.3583,-3.355,-3.3554,-3.3528,-3.3518,-3.3514,-3.3495,-3.3487,-3.3494,-3.35,-3.3505,-3.355,-3.3544,-3.3574,-3.3585,-3.3594,-3.3599,-3.3622,-3.3634,-3.3499,-3.3499,-3.3499,0,0,-3.361,-3.3593,-3.3603,-3.36,-3.3591,-3.3604,-3.3547,-3.3564,-3.3573,-3.3516,-3.354,-3.3528,-3.3516,-3.3553,-3.3568,-3.3544,-3.3636,-3.3601,-3.3609,-3.3608,-3.3629,-3.3642,-3.3653,-3.3503,-3.3502,-3.3502,0,0,-3.3693,-3.3682,-3.371,-3.3703,-3.369,-3.3668,-3.3676,-3.3653,-3.3642,-3.3667,-3.3624,-3.3636,-3.365,-3.3643,-3.3641,-3.3726,-3.3692,-3.3729,-3.3784,-3.3807,-3.3818,-3.3827,-3.3855,-3.3866,-3.3735,-3.3735,-3.3735,0,-3.3746,-3.3764,-3.3729,-3.3748,-3.3748,-3.3699,-3.3727,-3.3722,-3.3712,-3.3713,-3.3687,-3.3704,-3.3692,-3.3727,-3.3748,-3.3749,-3.3755,-3.3729,-3.3819,-3.3828,-3.3836,-3.3863,-3.3874,-3.374,-3.3739,-3.3739,-3.3738,0,-3.3831,-3.3844,-3.3869,-3.386,-3.3864,-3.3888,-3.3856,-3.3864,-3.384,-3.3821,-3.3848,-3.3833,-3.3834,-3.3841,-3.3817,-3.3873,-3.3858,-3.3827,-3.3779,-3.3854,-3.3878,-3.3888,-3.3746,-3.3744,-3.3743,-3.3742,0,0,-3.3954,-3.3928,-3.3937,-3.3933,-3.3917,-3.3927,-3.395,-3.3952,-3.3959,-3.3955,-3.3972,-3.3987,-3.3958,-3.3956,-3.3932,-3.3952,-3.4019,-3.3918,-3.3917,-3.3935,-3.4078,-3.4099,-3.4112,-3.3998,-3.4,-3.4001,-3.4078,0,-3.403,-3.4066,-3.4037,-3.4078,-3.4091,-3.4046,-3.4066,-3.4059,-3.4044,-3.4052,-3.4035,-3.4045,-3.4007,-3.4006,-3.4025,-3.4007,-3.4046,-3.4001,-3.4012,-3.4013,-3.4013,-3.4125,-3.4147,-3.422,-3.4088,-3.4089,-3.4091,0,-3.4123,-3.4123,-3.4166,-3.4149,-3.4153,-3.4171,-3.417,-3.418,-3.4172,-3.4159,-3.4159,-3.413,-3.4151,-3.4109,-3.4138,-3.4108,-3.4112,-3.4104,-3.4106,-3.4102,-3.4054,-3.4122,-3.4242,-3.4252,-3.4105,-3.4104,-3.4103,0,-3.4206,-3.4218,-3.4245,-3.4243,-3.4224,-3.4238,-3.4231,-3.422,-3.4223,-3.4224,-3.4226,-3.423,-3.4231,-3.4235,-3.4207,-3.4178,-3.424,-3.4194,-3.4229,-3.4229,-3.424,-3.4239,-3.436,-3.4248,-3.4248,-3.4248,-3.4248,0,-3.4292,-3.4319,-3.4282,-3.4298,-3.4328,-3.4296,-3.4326,-3.4315,-3.4307,-3.432,-3.4284,-3.4297,-3.4262,-3.4272,-3.4252,-3.4278,-3.428,-3.427,-3.4263,-3.4271,-3.4272,-3.427,-3.4263,-3.4251,-3.425,-3.425,-3.4249,0,-3.4387,-3.4363,-3.439,-3.4371,-3.4367,-3.439,-3.4373,-3.4388,-3.4372,-3.439,-3.4392,-3.4367,-3.4377,-3.4351,-3.4358,-3.4344,-3.4382,-3.4369,-3.4385,-3.4379,-3.4414,-3.441,-3.4535,-3.4549,-3.4432,-3.4433,-3.4434,0,-3.4442,-3.4462,-3.4446,-3.4452,-3.4447,-3.4459,-3.4462,-3.4433,-3.4438,-3.4432,-3.4447,-3.4455,-3.4459,-3.4479,-3.446,-3.4466,-3.4451,-3.4495,-3.4451,-3.4458,-3.4448,-3.4446,-3.4448,-3.4502,-3.4504,-3.4505,-3.4506,0,-3.4541,-3.4529,-3.4535,-3.4539,-3.4544,-3.4545,-3.4544,-3.4552,-3.452,-3.4528,-3.4539,-3.4542,-3.455,-3.4558,-3.456,-3.4553,-3.4524,-3.452,-3.4528,-3.4534,-3.4541,-3.4536,-3.4406,-3.4516,-3.4515,-3.4515,-3.4514,-3.4514,-3.4615,-3.4631,-3.4623,-3.4632,-3.4628,-3.4628,-3.4641,-3.4627,-3.4636,-3.4639,-3.4622,-3.4637,-3.463,-3.463,-3.4626,-3.4637,-3.4617,-3.4629,-3.4632,-3.4634,-3.4639,-3.4543,-3.4638,-3.4638,-3.4637,-3.4637,-3.4637,0,-3.471,-3.4703,-3.4712,-3.4712,-3.4719,-3.4694,-3.4692,-3.4699,-3.4713,-3.4709,-3.4715,-3.4728,-3.4736,-3.472,-3.4726,-3.4738,-3.4725,-3.474,-3.4737,-3.4736,-3.4657,-3.4649,-3.4751,-3.4751,-3.4751,-3.4751,-3.4751,-3.4751,-3.476,-3.4785,-3.4773,-3.4797,-3.479,-3.4804,-3.4805,-3.4805,-3.4802,-3.4818,-3.4825,-3.4815,-3.4807,-3.4813,-3.4819,-3.4815,-3.4817,-3.4837,-3.4827,-3.4753,-3.4742,-3.4731,-3.4722,-3.4838,-3.4839,-3.4905,-3.4905,-3.4906]},{"header":{"parameterUnit":"m.s-1","parameterCategory":1,"la1":30.2991,"la2":30.254,"lo1":-89.0895,"lo2":-89.0444,"dy":0.0017,"dx":0.0017,"nx":28,"ny":28,"refTime":"2024-05-30T03:00:00:Z","depth":0,"parameterNumber":3,"parameterNumberName":"V-component_of_WINDS"},"data":[0,0,0,0,0,0,0,0,0,0,0,0,0,0,0,0,0,0,0,0,0,0,0,0,0,0,0,0,0,0,0,0,0,0,0,0,0,0,0,0,0,0,0,0,0,0,0,0,0,0,0,0,0,0,0,0,0,0,2.0275,2.0275,0,2.0358,2.0359,2.0359,2.0402,2.0402,2.0402,2.0402,2.0484,2.0486,2.0489,0,0,0,0,0,0,0,0,0,0,0,0,0,2.015,2.0152,2.0274,2.0275,2.0277,2.0357,2.0359,2.036,2.0402,2.0402,2.0402,2.0402,2.0484,2.0486,2.0489,0,0,0,0,0,0,0,0,0,0,0,0,0,2.0216,2.0153,2.0274,2.0307,2.0311,2.0357,2.0359,2.036,2.0402,2.0402,2.0402,2.0402,2.0483,2.0486,2.0489,2.0508,0,0,2.0499,2.05,0,0,0,0,0,0,0,0,2.0212,2.022,2.0301,2.0305,2.0309,2.0369,2.0345,2.041,2.0402,2.0367,2.0402,2.0402,2.0446,2.0452,2.0468,2.0512,2.0515,2.0499,2.0501,2.0503,2.0504,0,0,0,0,0,0,0,2.0207,2.0217,2.0307,2.0302,2.0307,2.0317,2.0327,2.0358,2.0405,2.037,2.0373,2.0383,2.0448,2.0464,2.047,2.0517,2.0499,2.0502,2.0504,2.0505,2.0582,2.0582,0,0,0,0,0,0,2.0198,2.0213,2.0305,2.031,2.026,2.032,2.033,2.035,2.0405,2.0413,2.0383,2.0384,2.0459,2.0466,2.0473,2.05,2.0503,2.0506,2.0508,2.0582,2.0582,2.0582,0,0,0,0,0,0,2.0195,2.0206,2.0301,2.0262,2.0275,2.0322,2.0344,2.0352,2.0368,2.0414,2.0423,2.0391,2.0459,2.0468,2.0499,2.0503,2.0507,2.051,2.0582,2.0582,2.0582,2.0552,0,0,0,0,0,0,2.0191,2.0204,2.0212,2.0262,2.0277,2.0327,2.0344,2.0353,2.0374,2.0377,2.0424,2.0432,2.046,2.0494,2.0503,2.0507,2.0513,2.0582,2.0582,2.0582,2.0553,2.0551,2.055,0,0,0,0,0,2.0187,2.02,2.0213,2.0223,2.0288,2.0327,2.0336,2.0368,2.0374,2.0382,2.0412,2.0431,2.0501,2.0497,2.0507,2.0513,2.0581,2.0582,2.0582,2.0554,2.0552,2.055,0,0,0,0,0,0,2.0148,2.0207,2.0222,2.0252,2.0284,2.0334,2.0345,2.0364,2.0395,2.0397,2.0435,2.0445,2.0473,2.0496,2.0491,2.0534,2.0543,2.0545,2.0518,2.0517,2.0515,2.0509,2.0515,0,0,0,0,0,2.0144,2.0171,2.022,2.0242,2.0257,2.0299,2.0317,2.0339,2.0374,2.0387,2.042,2.0452,2.0482,2.0501,2.053,2.0557,2.0568,2.0565,2.0564,2.0562,2.0563,2.058,2.058,2.0583,2.0583,2.0583,0,0,2.0133,2.0169,2.0184,2.0235,2.0263,2.029,2.031,2.0337,2.0357,2.0391,2.0423,2.0448,2.0487,2.0516,2.053,2.0536,2.0565,2.0562,2.0561,2.0563,2.058,2.058,2.0579,2.0583,2.0583,2.0583,0,0,2.0129,2.0159,2.018,2.0208,2.025,2.0278,2.0283,2.033,2.0348,2.0381,2.0407,2.0432,2.0482,2.0509,2.0529,2.0536,2.0554,2.0544,2.0536,2.0551,2.0551,2.0551,2.0554,2.0554,2.0545,2.0545,2.0545,0,2.0111,2.0154,2.0189,2.0215,2.0237,2.027,2.0292,2.0317,2.0367,2.0381,2.0387,2.0451,2.0479,2.0515,2.0517,2.0532,2.0539,2.0539,2.0548,2.0548,2.0549,2.0552,2.0553,2.0544,2.0544,2.0544,2.0544,0,2.013,2.0158,2.0171,2.0219,2.0242,2.0266,2.0305,2.0324,2.0344,2.0371,2.0404,2.044,2.0478,2.0488,2.0507,2.0527,2.0529,2.0541,2.0551,2.0547,2.055,2.0552,2.0542,2.0542,2.0543,2.0543,0,0,2.0103,2.0171,2.0175,2.0198,2.0247,2.027,2.0295,2.0334,2.035,2.0382,2.0405,2.0447,2.0459,2.0482,2.0505,2.0518,2.0522,2.0529,2.053,2.0527,2.0547,2.0538,2.0539,2.0535,2.0535,2.0535,2.0544,0,2.0106,2.0154,2.0187,2.0222,2.025,2.0282,2.0304,2.0337,2.0362,2.0389,2.0417,2.0447,2.0459,2.0474,2.0488,2.0518,2.0527,2.0518,2.0556,2.0557,2.0545,2.054,2.0531,2.0537,2.0545,2.0545,2.0546,0,2.0116,2.0149,2.0188,2.0235,2.0248,2.0267,2.0305,2.033,2.0368,2.0386,2.0412,2.0435,2.0464,2.0471,2.051,2.0504,2.0521,2.0538,2.0539,2.0544,2.0551,2.0546,2.054,2.0541,2.0548,2.0548,2.0548,0,2.0094,2.0148,2.0178,2.0196,2.0252,2.0265,2.0289,2.0327,2.0348,2.0381,2.0395,2.043,2.0449,2.0476,2.0509,2.0511,2.0545,2.0555,2.0561,2.056,2.0567,2.0566,2.0564,2.0577,2.0577,2.0577,2.0577,0,2.0094,2.0116,2.0169,2.0187,2.0213,2.0251,2.0275,2.0301,2.0335,2.0359,2.0388,2.041,2.0452,2.0479,2.0504,2.0533,2.0542,2.0557,2.0563,2.0555,2.0553,2.0567,2.0567,2.0577,2.0577,2.0577,2.0577,0,2.0073,2.0109,2.0145,2.0195,2.0208,2.0225,2.0268,2.0287,2.0315,2.0345,2.0354,2.0397,2.043,2.0466,2.051,2.0528,2.0556,2.0565,2.0543,2.0547,2.0551,2.0551,2.0559,2.0562,2.0572,2.0572,2.0571,0,2.0071,2.0089,2.0142,2.016,2.0184,2.0213,2.0235,2.0273,2.0294,2.0339,2.0353,2.0388,2.0419,2.0471,2.0506,2.054,2.0551,2.0551,2.0556,2.0547,2.0551,2.055,2.0552,2.0549,2.0549,2.0549,2.0549,0,2.0064,2.0081,2.0112,2.015,2.0175,2.0206,2.0238,2.0252,2.0296,2.0318,2.0353,2.0377,2.0424,2.0459,2.0498,2.0522,2.0543,2.0547,2.055,2.0541,2.0529,2.0536,2.0539,2.0546,2.0547,2.0547,2.0547,2.0547,2.0053,2.0071,2.0111,2.0145,2.0173,2.0202,2.0223,2.0254,2.0284,2.0325,2.0345,2.038,2.0418,2.0473,2.0497,2.0524,2.0531,2.0535,2.0536,2.0537,2.0535,2.0524,2.0532,2.0532,2.0532,2.0532,2.0532,0,2.0048,2.0075,2.0106,2.0151,2.0177,2.0195,2.0232,2.0253,2.0283,2.0317,2.0347,2.0387,2.0422,2.046,2.0497,2.0512,2.0522,2.052,2.052,2.0525,2.0527,2.0521,2.0511,2.0511,2.0511,2.0511,2.0511,2.0511,2.0048,2.0079,2.0102,2.0147,2.0175,2.021,2.023,2.0257,2.0284,2.0329,2.0358,2.0383,2.0418,2.0458,2.0491,2.0501,2.0513,2.0509,2.0522,2.0523,2.0525,2.0526,2.0521,2.0511,2.0511,2.0517,2.0517,2.0517]}]]